Wind_Speed
14 15 14 15 17 20 25 24 28 33 35 32 27 31 36 30 28 28 24 11 11 14 16 16 18 21 21 22 23 19 16 16
16 18 20 20 19 19 20 31 32 34 34 34 30 28 34 33 30 30 25 18 16 18 18 18 19 25 25 24 20 19 17 18
14 17 22 24 24 26 25 25 36 33 32 31 33 34 37 40 36 37 35 27 20 23 22 22 23 26 27 25 25 23 17 19
14 19 21 24 24 29 31 30 35 35 38 36 29 30 29 32 35 38 39 29 29 29 27 25 26 28 31 29 29 29 26 22
16 20 24 27 29 30 31 35 35 37 33 32 30 27 27 32 32 35 37 31 30 26 28 27 27 32 33 30 29 30 27 24
20 22 31 32 31 31 34 34 36 34 37 33 31 27 27 27 31 34 37 38 35 32 30 29 31 34 34 29 28 31 31 27
21 31 31 32 34 34 34 35 35 38 38 36 33 32 30 33 36 39 40 40 40 35 34 34 34 34 28 28 28 31 31 26
21 21 26 31 34 37 36 37 36 37 38 40 42 40 35 36 42 40 38 38 39 37 35 35 29 29 29 28 30 31 31 25
23 24 31 36 39 40 40 41 41 43 43 43 45 44 37 41 42 39 42 41 40 35 33 32 31 30 30 29 29 30 29 27
24 23 33 35 38 42 46 44 44 45 46 42 42 40 40 37 42 41 42 42 40 36 35 32 29 30 29 30 29 28 28 28
20 19 29 35 39 44 45 44 48 45 36 36 39 40 38 36 39 44 45 43 43 37 34 29 30 30 28 28 30 29 27 22
18 20 30 36 37 35 41 43 39 39 41 45 48 46 42 38 36 41 42 43 40 37 34 29 29 30 30 27 29 28 24 21
17 18 29 33 35 36 39 41 39 44 47 43 40 31 34 32 34 34 25 31 37 34 28 25 28 31 27 28 28 25 24 26
7 10 16 25 30 31 36 39 43 41 38 38 37 30 34 38 32 32 40 37 32 30 26 27 27 25 25 27 27 26 28 27
6 10 16 24 28 28 31 35 37 39 38 38 35 34 37 37 40 39 41 42 34 30 28 27 26 25 25 26 26 27 25 23
9 8 9 12 17 24 29 34 31 35 35 36 34 36 38 40 37 37 34 36 33 31 28 24 23 23 24 24 25 24 23 21
12 12 9 11 18 24 28 29 33 34 30 29 27 31 34 33 30 28 30 28 27 26 25 24 23 23 22 22 25 24 22 20
10 14 13 15 22 29 25 27 30 29 27 26 25 28 29 30 32 31 29 26 25 25 23 23 22 21 20 21 19 20 18 15
9 8 8 15 22 23 26 26 27 26 24 23 24 27 27 28 29 29 27 25 24 21 21 21 21 21 20 19 17 18 14 10
Wind_Direction
186 183 176 176 170 169 167 164 146 157 161 166 158 153 159 168 176 178 173 177 195 203 204 205 202 201 198 194 196 205 213 208
179 183 184 177 172 171 162 173 172 170 169 172 176 175 175 191 193 185 196 212 216 222 222 221 214 204 205 207 208 209 214 207
184 189 180 184 180 182 178 175 174 170 169 176 188 189 195 205 203 201 215 231 229 224 224 222 221 218 216 213 211 206 201 201
187 190 188 188 189 192 190 184 182 181 179 181 187 191 202 210 217 222 228 228 240 236 236 227 226 222 216 214 213 215 211 206
184 191 193 192 198 198 193 195 192 191 190 190 192 198 204 211 220 228 230 235 233 235 232 233 230 221 218 221 219 222 223 212
188 194 193 196 196 197 199 198 201 198 195 196 198 208 218 223 225 228 232 232 238 239 235 236 233 224 220 227 223 220 223 216
193 196 190 193 193 193 195 197 203 207 208 206 211 220 220 218 219 223 228 234 236 235 238 236 232 225 224 221 225 221 221 218
193 191 191 192 193 193 193 194 201 205 209 216 223 227 226 227 226 227 228 229 230 231 224 225 226 232 229 223 226 223 219 226
195 194 193 192 192 193 196 200 204 208 212 219 223 226 227 229 232 229 232 233 233 229 224 226 224 225 223 223 222 222 224 223
199 196 197 197 195 196 196 201 207 207 210 214 222 226 227 229 232 234 233 231 223 232 224 222 227 218 222 226 229 223 216 217
202 200 199 199 201 200 200 204 206 212 215 217 223 230 232 233 233 233 232 236 229 232 226 225 220 220 224 231 228 220 217 223
201 202 203 201 204 201 203 207 210 208 215 218 219 224 230 233 232 234 236 231 231 226 225 225 222 221 228 228 221 220 219 214
195 194 199 199 201 202 204 207 209 209 211 217 223 223 226 229 222 228 236 237 226 225 224 226 222 224 228 221 216 218 211 200
172 169 187 198 203 203 207 211 212 209 210 214 222 224 223 220 211 221 227 235 227 224 222 222 224 225 223 221 222 224 208 203
216 168 185 189 197 203 209 212 210 206 205 208 214 213 215 214 219 232 224 227 222 218 217 219 220 218 220 222 219 206 196 196
194 208 184 178 189 204 209 215 209 199 201 209 210 208 212 219 216 219 222 218 210 213 211 207 208 210 211 206 198 195 195 193
191 198 173 170 179 193 207 208 206 199 193 202 205 200 201 207 210 204 198 198 202 204 201 200 197 200 202 201 196 191 189 194
189 188 186 179 181 177 170 180 193 187 192 191 188 187 185 183 187 185 189 189 187 189 188 187 186 186 186 189 190 186 182 178
195 188 172 164 168 167 160 155 158 159 159 159 159 157 156 164 171 171 170 173 177 173 172 176 176 176 172 175 172 165 170 182
Height
783 784 785 785 788 789 790 793 793 797 802 809 810 813 814 822 825 827 829 832 837 841 844 847 850 852 854 856 860 863 865 866
783 785 785 786 788 790 792 794 797 801 805 807 813 814 817 823 826 827 828 833 836 839 842 843 847 849 851 855 857 859 862 864
781 784 784 786 788 791 795 797 798 801 803 807 812 815 817 821 824 824 828 830 833 834 836 838 842 846 849 851 853 855 859 861
777 781 782 784 787 790 794 796 798 800 803 808 812 816 819 821 821 822 823 826 830 831 832 834 837 840 843 845 848 851 853 856
771 776 779 780 783 786 791 794 796 798 804 807 809 811 814 814 817 819 821 825 827 829 829 831 833 836 839 841 844 847 850 852
763 768 770 774 780 784 787 791 793 796 800 803 806 810 812 814 816 817 818 821 822 824 826 828 831 832 835 837 839 842 844 847
755 759 766 770 774 778 782 787 790 795 799 802 803 804 807 808 809 810 812 814 815 818 820 824 825 828 830 833 835 837 838 841
749 755 760 765 769 772 776 780 785 789 794 795 797 798 803 803 802 804 805 807 808 810 814 817 820 822 825 828 830 832 834 836
737 743 748 753 758 765 771 772 774 778 782 784 787 791 794 795 796 798 798 799 801 805 807 809 813 817 821 823 826 827 829 832
725 731 738 744 749 753 756 763 766 767 770 776 779 783 786 788 789 791 792 793 797 799 801 805 809 812 815 818 820 822 825 827
716 723 728 734 738 741 748 753 751 758 769 771 772 774 780 783 784 783 785 788 791 794 797 799 803 806 810 813 816 819 821 824
706 712 718 722 729 737 740 744 750 755 758 756 756 760 766 772 777 780 780 781 785 788 791 794 796 801 804 808 811 813 816 819
697 701 706 714 719 726 729 732 741 742 743 747 750 758 761 765 767 770 775 774 779 782 786 788 791 794 799 802 806 808 810 813
693 697 701 706 712 716 721 725 727 732 738 742 744 750 753 754 758 763 764 768 774 777 779 782 785 789 793 797 800 803 805 809
691 692 695 697 702 707 712 715 718 723 728 731 736 738 742 748 751 755 756 761 767 773 775 776 781 785 788 791 796 799 802 806
690 689 689 691 695 698 702 705 711 715 720 724 726 731 737 742 743 744 750 757 762 767 769 772 776 780 783 787 792 796 801 804
680 682 686 689 690 690 692 695 699 706 713 716 722 728 732 735 739 742 748 753 758 762 765 768 772 776 781 786 790 794 798 803
674 675 676 680 683 683 687 690 694 702 708 714 720 723 727 731 735 739 744 750 755 759 762 765 770 775 780 785 789 793 798 803
669 669 671 675 679 683 685 690 694 700 707 712 717 721 725 730 734 739 744 750 755 758 762 767 771 776 780 785 788 793 798 801